N5COP-13 Weather Reports


time (UTC)temp
F
wind
direction
speed
knots
gust
knots
rain 1hr
in
rain 24hr
in
rain mn
in
humidity
%
barometer
mb
20260505171557 62 31 13.0 15.6 0.00 0.00 0.00 42 1011.5
20260505171055 63 22 7.8 13.0 0.00 0.00 0.00 44 1011.8
20260505170551 62 70 15.6 16.5 0.00 0.00 0.00 45 1011.7
20260505170048 61 54 7.8 14.8 0.00 0.00 0.00 45 1011.8
20260505165543 61 40 8.7 13.9 0.00 0.00 0.00 44 1011.8
20260505165039 61 34 9.6 17.4 0.00 0.00 0.00 44 1011.4
20260505164535 60 49 7.8 13.0 0.00 0.00 0.00 44 1011.5
20260505164033 60 23 9.6 17.4 0.00 0.00 0.00 44 1011.8
20260505163531 61 33 8.7 17.4 0.00 0.00 0.00 44 1011.7
20260505163027 61 65 6.1 13.0 0.00 0.00 0.00 44 1011.5
20260505162521 60 20 11.3 17.4 0.00 0.00 0.00 45 1011.6
20260505162018 59 53 8.7 13.0 0.00 0.00 0.00 46 1011.7
20260505161515 58 60 6.1 16.5 0.00 0.00 0.00 46 1011.7
20260505161012 59 58 8.7 18.2 0.00 0.00 0.00 46 1011.7
20260505160510 59 10 11.3 16.5 0.00 0.00 0.00 46 1011.6
20260505152940 58 3 6.1 19.1 0.00 0.00 0.00 45 1010.9
20260505152437 58 349 15.6 16.5 0.00 0.00 0.00 45 1010.8
20260505151932 57 353 7.8 16.5 0.00 0.00 0.00 46 1010.9
20260505151428 56 359 7.8 18.2 0.00 0.00 0.00 46 1010.6
20260505150925 56 15 11.3 15.6 0.00 0.00 0.00 46 1010.7
20260505150416 56 11 9.6 15.6 0.00 0.00 0.00 46 1010.8
20260505140335 54 348 12.2 14.8 0.00 0.00 0.00 49 1010.9
20260505130258 52 12 11.3 17.4 0.00 0.00 0.00 54 1009.3
20260505124749 53 7 5.2 16.5 0.00 0.00 0.00 56 1008.7
20260505124245 53 346 4.3 12.2 0.00 0.00 0.00 56 1008.8
20260505123741 53 353 9.6 12.2 0.00 0.00 0.00 57 1008.6
20260505123238 53 358 5.2 11.3 0.00 0.00 0.00 57 1008.7
20260505122734 53 356 9.6 13.9 0.00 0.00 0.00 57 1008.6
20260505122232 53 6 6.1 13.9 0.00 0.00 0.00 57 1008.7
20260505121728 53 333 7.0 11.3 0.00 0.00 0.00 57 1008.5
20260505121225 53 357 3.5 8.7 0.00 0.00 0.00 57 1008.5
20260505120721 53 1 9.6 11.3 0.00 0.00 0.00 56 1008.5
20260505120217 53 12 7.8 14.8 0.00 0.00 0.00 57 1008.0
20260505115716 53 356 6.1 12.2 0.00 0.00 0.00 57 1008.0
20260505115214 53 23 10.4 12.2 0.00 0.00 0.00 57 1008.0
20260505114711 54 9 5.2 11.3 0.00 0.00 0.00 57 1008.2
20260505114207 54 359 12.2 16.5 0.00 0.00 0.00 57 1008.2
20260505113704 54 338 5.2 13.0 0.00 0.00 0.00 57 1008.2
20260505113200 54 352 4.3 14.8 0.00 0.00 0.00 57 1008.0
20260505112657 55 1 8.7 16.5 0.00 0.00 0.00 57 1007.9
20260505112155 55 350 10.4 15.6 0.00 0.00 0.00 57 1007.8
20260505111654 55 5 13.0 14.8 0.00 0.00 0.00 57 1008.3
20260505111150 56 0 7.8 12.2 0.00 0.00 0.00 57 1008.0
20260505110646 56 357 8.7 16.5 0.00 0.00 0.00 57 1007.8
20260505110144 56 351 9.6 16.5 0.00 0.00 0.00 56 1007.7
20260505102120 60 335 14.8 24.3 0.00 0.00 0.00 45 1007.5
20260505101618 61 336 11.3 20.9 0.00 0.00 0.00 42 1007.4
20260505101114 62 332 17.4 26.9 0.00 0.00 0.00 39 1007.4
20260505100610 63 334 14.8 27.8 0.00 0.00 0.00 34 1007.0
20260505100108 63 333 16.5 19.1 0.00 0.00 0.00 31 1006.8
20260505095604 64 333 7.0 14.8 0.00 0.00 0.00 30 1006.6
20260505095100 64 316 14.8 17.4 0.00 0.00 0.00 30 1006.6
20260505094557 63 308 11.3 12.2 0.00 0.00 0.00 30 1006.2
20260505094053 63 293 6.1 8.7 0.00 0.00 0.00 30 1006.4
20260505093549 63 308 7.8 9.6 0.00 0.00 0.00 30 1006.1
20260505093047 64 322 7.8 11.3 0.00 0.00 0.00 29 1006.0
20260505092544 65 308 9.6 12.2 0.00 0.00 0.00 29 1005.9
20260505092043 64 263 12.2 18.2 0.00 0.00 0.00 30 1005.6
20260505091539 62 261 7.8 12.2 0.00 0.00 0.00 31 1005.5
20260505091037 62 263 7.8 9.6 0.00 0.00 0.00 31 1005.6
20260505090535 63 272 7.0 7.8 0.00 0.00 0.00 30 1005.2
20260505090033 63 284 5.2 7.0 0.00 0.00 0.00 29 1005.2
20260505085530 64 249 7.0 8.7 0.00 0.00 0.00 29 1005.1
20260505085028 65 256 7.0 8.7 0.00 0.00 0.00 29 1005.1
20260505084526 65 238 10.4 11.3 0.00 0.00 0.00 29 1005.0
20260505084024 66 263 7.8 10.4 0.00 0.00 0.00 28 1005.0
20260505083521 66 240 8.7 12.2 0.00 0.00 0.00 28 1005.0
20260505083017 66 244 9.6 13.0 0.00 0.00 0.00 28 1005.0
20260505082513 67 251 12.2 14.8 0.00 0.00 0.00 27 1005.1
20260505082010 67 237 10.4 14.8 0.00 0.00 0.00 27 1004.8
20260505081507 67 244 12.2 15.6 0.00 0.00 0.00 27 1004.8
20260505081003 68 251 10.4 14.8 0.00 0.00 0.00 27 1005.0
20260505080500 68 250 11.3 16.5 0.00 0.00 0.00 26 1004.9
20260505075955 68 242 13.0 16.5 0.00 0.00 0.00 26 1005.0
20260505075452 68 248 10.4 18.2 0.00 0.00 0.00 26 1004.9
20260505074949 68 250 10.4 17.4 0.00 0.00 0.00 26 1005.1
20260505074447 68 247 13.9 15.6 0.00 0.00 0.00 26 1005.1
20260505073944 68 244 11.3 15.6 0.00 0.00 0.00 26 1005.1
20260505073441 68 247 11.3 16.5 0.00 0.00 0.00 26 1005.4
20260505072938 68 247 10.4 16.5 0.00 0.00 0.00 26 1005.2
20260505072434 69 244 13.9 17.4 0.00 0.00 0.00 26 1005.5
20260505071931 69 246 12.2 16.5 0.00 0.00 0.00 25 1005.2
20260505071427 69 238 14.8 16.5 0.00 0.00 0.00 25 1005.2
20260505070925 69 239 14.8 20.0 0.00 0.00 0.00 25 1005.2
20260505070421 69 235 12.2 18.2 0.00 0.00 0.00 26 1005.4
20260505065917 69 234 12.2 15.6 0.00 0.00 0.00 26 1005.6
20260505065414 69 236 12.2 19.1 0.00 0.00 0.00 26 1005.5
20260505064911 68 235 13.0 15.6 0.00 0.00 0.00 26 1005.5
20260505064408 68 234 13.0 17.4 0.00 0.00 0.00 26 1005.4
20260505063906 69 232 13.0 16.5 0.00 0.00 0.00 26 1005.4
20260505063402 69 239 14.8 19.1 0.00 0.00 0.00 25 1005.6
20260505062859 69 237 16.5 20.0 0.00 0.00 0.00 25 1005.4
20260505062356 70 241 15.6 20.9 0.00 0.00 0.00 25 1005.5
20260505061852 70 243 15.6 20.0 0.00 0.00 0.00 25 1005.4
20260505061351 70 242 14.8 20.9 0.00 0.00 0.00 25 1005.4
20260505060848 70 249 14.8 21.7 0.00 0.00 0.00 25 1005.6
20260505060345 71 241 13.9 20.9 0.00 0.00 0.00 24 1005.5
20260505055841 71 238 13.9 20.9 0.00 0.00 0.00 24 1005.5
20260505055337 71 248 13.9 22.6 0.00 0.00 0.00 24 1005.4
20260505054834 71 237 17.4 22.6 0.00 0.00 0.00 24 1005.5
20260505054332 71 234 16.5 22.6 0.00 0.00 0.00 24 1005.5
20260505053830 71 241 14.8 24.3 0.00 0.00 0.00 24 1005.4
20260505053326 71 245 12.2 20.0 0.00 0.00 0.00 23 1005.6
20260505052823 72 245 18.2 22.6 0.00 0.00 0.00 23 1005.4
20260505052320 72 239 18.2 20.0 0.00 0.00 0.00 23 1005.5
20260505051817 72 237 13.9 20.9 0.00 0.00 0.00 23 1005.5
20260505051314 72 231 13.0 21.7 0.00 0.00 0.00 23 1005.2
20260505050812 72 240 16.5 24.3 0.00 0.00 0.00 23 1005.7
20260505050311 72 233 21.7 22.6 0.00 0.00 0.00 23 1005.6
20260505041740 71 229 18.2 20.9 0.00 0.00 0.00 24 1005.8
20260505041237 71 232 13.0 18.2 0.00 0.00 0.00 24 1005.7
20260505040735 71 228 13.0 19.1 0.00 0.00 0.00 25 1005.8
20260505040232 71 228 15.6 16.5 0.00 0.00 0.00 25 1005.9
20260505035729 71 235 14.8 17.4 0.00 0.00 0.00 24 1005.7
20260505035225 72 235 13.9 16.5 0.00 0.00 0.00 24 1005.8
20260505034722 72 240 11.3 17.4 0.00 0.00 0.00 24 1005.9
20260505034219 72 227 11.3 17.4 0.00 0.00 0.00 24 1005.7
20260505033715 72 236 13.0 18.2 0.00 0.00 0.00 24 1005.7
20260505033214 72 227 14.8 20.0 0.00 0.00 0.00 24 1005.7
20260505032711 72 232 11.3 14.8 0.00 0.00 0.00 24 1005.5
20260505032207 72 225 15.6 17.4 0.00 0.00 0.00 24 1005.7
20260505031705 72 227 10.4 15.6 0.00 0.00 0.00 24 1005.5
20260505031201 72 224 10.4 15.6 0.00 0.00 0.00 24 1005.7
20260505030658 72 220 11.3 13.9 0.00 0.00 0.00 23 1005.4
20260505030153 73 224 11.3 13.9 0.00 0.00 0.00 23 1005.5
20260505025649 73 225 10.4 20.0 0.00 0.00 0.00 22 1005.5
20260505025148 73 228 14.8 16.5 0.00 0.00 0.00 22 1005.4
20260505024645 74 228 13.9 18.2 0.00 0.00 0.00 21 1005.4
20260505024142 74 225 13.0 21.7 0.00 0.00 0.00 21 1005.5
20260505023640 74 226 16.5 21.7 0.00 0.00 0.00 20 1005.2
20260505023137 74 231 16.5 19.1 0.00 0.00 0.00 20 1005.4
20260505022635 74 236 15.6 18.2 0.00 0.00 0.00 19 1005.1
20260505022131 74 216 9.6 13.9 0.00 0.00 0.00 17 1005.0
20260505021628 75 222 11.3 15.6 0.00 0.00 0.00 17 1005.1
20260505021125 75 240 13.0 14.8 0.00 0.00 0.00 17 1004.8
20260505020620 75 232 13.0 17.4 0.00 0.00 0.00 17 1005.1
20260505020117 75 235 13.0 14.8 0.00 0.00 0.00 17 1004.9
20260505015614 76 229 14.8 16.5 0.00 0.00 0.00 17 1004.9
20260505015111 76 229 13.9 19.1 0.00 0.00 0.00 16 1004.8
20260505014607 77 230 15.6 20.0 0.00 0.00 0.00 16 1005.0
20260505014104 77 235 13.0 18.2 0.00 0.00 0.00 16 1004.9
20260505013601 77 229 12.2 16.5 0.00 0.00 0.00 15 1004.9
20260505013059 77 234 15.6 20.0 0.00 0.00 0.00 15 1004.8
20260505012557 78 234 16.5 20.9 0.00 0.00 0.00 15 1004.9
20260505012054 78 237 15.6 20.0 0.00 0.00 0.00 14 1004.6
20260505011549 78 245 15.6 22.6 0.00 0.00 0.00 14 1004.7
20260505011047 79 238 15.6 24.3 0.00 0.00 0.00 14 1004.6
20260505010542 79 246 20.9 23.5 0.00 0.00 0.00 15 1004.6
20260505010039 79 246 17.4 24.3 0.00 0.00 0.00 15 1004.5
20260505005535 80 240 14.8 21.7 0.00 0.00 0.00 15 1004.5
20260505005033 80 248 14.8 22.6 0.00 0.00 0.00 15 1004.8
20260505004529 80 241 16.5 21.7 0.00 0.00 0.00 15 1004.8
20260505004026 80 242 18.2 22.6 0.00 0.00 0.00 15 1004.7
20260505003523 81 235 17.4 24.3 0.00 0.00 0.00 14 1004.9
20260505003021 81 242 16.5 25.2 0.00 0.00 0.00 14 1005.0
20260505002520 81 251 16.5 27.8 0.00 0.00 0.00 14 1005.0
20260505002015 81 235 19.1 28.7 0.00 0.00 0.00 14 1004.9
20260505001512 82 243 26.1 32.2 0.00 0.00 0.00 14 1005.0
20260505001009 82 237 20.9 27.8 0.00 0.00 0.00 14 1004.9
20260505000506 82 240 20.0 26.9 0.00 0.00 0.00 14 1004.9
20260505000004 82 244 16.5 25.2 0.00 0.00 0.00 14 1004.8
20260504235500 82 233 18.2 26.1 0.00 0.00 0.00 14 1004.9
20260504234956 82 246 20.0 27.8 0.00 0.00 0.00 14 1004.9
20260504234454 83 239 19.1 27.8 0.00 0.00 0.00 13 1004.8
20260504233950 83 233 22.6 26.1 0.00 0.00 0.00 13 1005.0
20260504233446 83 236 22.6 28.7 0.00 0.00 0.00 13 1005.0
20260504232943 83 243 17.4 26.9 0.00 0.00 0.00 13 1004.9
20260504232440 83 244 16.5 29.5 0.00 0.00 0.00 13 1004.9
20260504231938 83 239 26.1 30.4 0.00 0.00 0.00 13 1005.0
20260504231434 84 240 15.6 26.9 0.00 0.00 0.00 13 1005.0
20260504230930 84 234 24.3 28.7 0.00 0.00 0.00 13 1004.8
20260504230427 84 247 24.3 30.4 0.00 0.00 0.00 14 1004.8
20260504225926 84 229 21.7 24.3 0.00 0.00 0.00 15 1004.7
20260504225422 84 239 26.9 29.5 0.00 0.00 0.00 16 1004.7
20260504224920 84 244 10.4 20.9 0.00 0.00 0.00 18 1004.9
20260504224416 84 254 18.2 20.0 0.00 0.00 0.00 19 1004.9
20260504223914 84 247 12.2 18.2 0.00 0.00 0.00 19 1004.8
20260504223409 84 247 19.1 23.5 0.00 0.00 0.00 19 1005.0
20260504222905 84 245 26.1 26.9 0.00 0.00 0.00 20 1005.1
20260504222402 83 247 15.6 21.7 0.00 0.00 0.00 21 1005.2
20260504221900 84 247 25.2 30.4 0.00 0.00 0.00 21 1005.2
20260504221351 84 225 20.0 20.9 0.00 0.00 0.00 22 1005.5
20260504220848 83 251 11.3 22.6 0.00 0.00 0.00 22 1005.5
20260504220344 84 231 23.5 24.3 0.00 0.00 0.00 21 1005.7
20260504215842 84 249 17.4 23.5 0.00 0.00 0.00 21 1005.2
20260504215338 84 218 9.6 13.9 0.00 0.00 0.00 21 1005.4
20260504214834 84 238 20.9 25.2 0.00 0.00 0.00 20 1005.9
20260504214332 85 254 13.0 20.9 0.00 0.00 0.00 19 1005.9
20260504213828 85 262 14.8 19.1 0.00 0.00 0.00 19 1005.9
20260504213324 84 275 8.7 16.5 0.00 0.00 0.00 19 1006.0
20260504212822 85 263 15.6 22.6 0.00 0.00 0.00 19 1006.0
20260504212317 84 264 14.8 19.1 0.00 0.00 0.00 19 1006.1
20260504211816 85 253 10.4 16.5 0.00 0.00 0.00 19 1006.1
20260504211311 85 233 12.2 16.5 0.00 0.00 0.00 20 1006.1
20260504210809 84 235 20.0 22.6 0.00 0.00 0.00 20 1006.6
20260504210306 84 269 11.3 17.4 0.00 0.00 0.00 19 1006.6
20260504205803 84 263 10.4 17.4 0.00 0.00 0.00 20 1006.5
20260504205301 85 231 11.3 15.6 0.00 0.00 0.00 20 1006.6
20260504204759 85 257 18.2 24.3 0.00 0.00 0.00 20 1006.6
20260504204257 84 255 11.3 18.2 0.00 0.00 0.00 21 1006.9
20260504203756 84 219 9.6 15.6 0.00 0.00 0.00 22 1006.7
20260504203253 84 226 17.4 19.1 0.00 0.00 0.00 21 1006.8
20260504202753 84 224 10.4 21.7 0.00 0.00 0.00 22 1006.9
20260504202250 85 238 19.1 29.5 0.00 0.00 0.00 21 1006.9
20260504201747 85 251 13.0 15.6 0.00 0.00 0.00 21 1007.0
20260504201244 84 248 15.6 25.2 0.00 0.00 0.00 21 1007.3
20260504200742 84 271 20.9 23.5 0.00 0.00 0.00 21 1007.0
20260504200238 84 246 12.2 16.5 0.00 0.00 0.00 23 1007.3
20260504195735 84 238 14.8 21.7 0.00 0.00 0.00 22 1007.3
20260504195230 84 249 18.2 21.7 0.00 0.00 0.00 21 1007.1
20260504194728 85 267 20.0 23.5 0.00 0.00 0.00 22 1007.3
20260504194224 84 273 10.4 16.5 0.00 0.00 0.00 23 1007.4
20260504193720 83 250 20.0 20.0 0.00 0.00 0.00 23 1007.7
20260504193218 83 266 13.9 16.5 0.00 0.00 0.00 23 1007.7
20260504192716 84 254 17.4 26.1 0.00 0.00 0.00 23 1007.8
20260504192214 84 263 13.9 22.6 0.00 0.00 0.00 22 1007.7
20260504191712 83 273 11.3 19.1 0.00 0.00 0.00 24 1007.8
20260504191209 83 286 18.2 20.9 0.00 0.00 0.00 24 1007.8
20260504190704 83 264 16.5 21.7 0.00 0.00 0.00 25 1007.9
20260504190201 82 264 18.2 25.2 0.00 0.00 0.00 24 1008.0
20260504185657 82 248 12.2 18.2 0.00 0.00 0.00 26 1008.2
20260504185154 82 253 14.8 20.9 0.00 0.00 0.00 25 1008.2
20260504184650 83 256 16.5 20.9 0.00 0.00 0.00 24 1008.2
20260504184145 83 281 13.9 19.1 0.00 0.00 0.00 24 1008.4
20260504183642 82 257 20.0 24.3 0.00 0.00 0.00 25 1008.3
20260504183139 83 274 13.0 23.5 0.00 0.00 0.00 25 1008.4
20260504182637 83 296 12.2 19.1 0.00 0.00 0.00 25 1008.7
20260504182129 82 277 13.0 19.1 0.00 0.00 0.00 25 1008.7
20260504181626 82 278 13.0 18.2 0.00 0.00 0.00 25 1008.7
20260504181124 82 279 12.2 14.8 0.00 0.00 0.00 26 1008.9
20260504180623 82 282 13.0 20.9 0.00 0.00 0.00 26 1009.0
20260504180121 82 285 14.8 23.5 0.00 0.00 0.00 25 1009.2
20260504175618 82 289 15.6 21.7 0.00 0.00 0.00 26 1009.4
20260504175115 82 272 13.0 17.4 0.00 0.00 0.00 26 1009.5
20260504174613 82 253 19.1 22.6 0.00 0.00 0.00 26 1009.5
20260504174109 82 251 24.3 24.3 0.00 0.00 0.00 26 1009.5
20260504173606 81 289 14.8 20.0 0.00 0.00 0.00 25 1009.5
20260504173104 81 277 16.5 21.7 0.00 0.00 0.00 25 1009.8
20260504172600 81 247 17.4 21.7 0.00 0.00 0.00 27 1009.7
20260504172056 80 246 18.2 22.6 0.00 0.00 0.00 27 1009.9